This is the latest recevied weather packets stored in our database for station/object OH2CHY-10. If no packets are shown the sender has not sent any weather packets the latest 10 day(s).
| Time | Temp. | Humidity | Pressure | Rain* | Wind** | Luminosity | Snow |
|---|---|---|---|---|---|---|---|
| 1778014766 | 4.44° C | 49% | 1008.2 hPa | - | - | - | - |
| 1778013866 | 5° C | 48% | 1007.9 hPa | - | - | - | - |
| 1778012966 | 5° C | 47% | 1007.8 hPa | - | - | - | - |
| 1778012066 | 5° C | 46% | 1007.6 hPa | - | - | - | - |
| 1778011166 | 5.56° C | 45% | 1007.5 hPa | - | - | - | - |
| 1778010266 | 5.56° C | 44% | 1007.5 hPa | - | - | - | - |
| 1778009366 | 6.11° C | 43% | 1007.3 hPa | - | - | - | - |
| 1778008466 | 6.11° C | 43% | 1007.1 hPa | - | - | - | - |
| 1778007566 | 6.67° C | 40% | 1006.9 hPa | - | - | - | - |
| 1778006666 | 7.22° C | 39% | 1006.9 hPa | - | - | - | - |
| 1778005766 | 7.78° C | 37% | 1006.6 hPa | - | - | - | - |
| 1778004866 | 8.33° C | 36% | 1006.5 hPa | - | - | - | - |
| 1778003966 | 8.89° C | 35% | 1006.4 hPa | - | - | - | - |
| 1778003065 | 8.89° C | 35% | 1006.2 hPa | - | - | - | - |
| 1778002165 | 9.44° C | 34% | 1006.1 hPa | - | - | - | - |
| 1778001265 | 10° C | 33% | 1006 hPa | - | - | - | - |
| 1778000365 | 11.11° C | 33% | 1005.8 hPa | - | - | - | - |
| 1777999465 | 11.67° C | 32% | 1005.9 hPa | - | - | - | - |
| 1777998565 | 12.22° C | 30% | 1005.8 hPa | - | - | - | - |
| 1777997665 | 13.33° C | 28% | 1005.7 hPa | - | - | - | - |
| 1777996765 | 13.89° C | 28% | 1005.5 hPa | - | - | - | - |
| 1777995865 | 13.33° C | 27% | 1005.3 hPa | - | - | - | - |
| 1777994965 | 15° C | 26% | 1005.2 hPa | - | - | - | - |
| 1777994065 | 15.56° C | 26% | 1005.1 hPa | - | - | - | - |
| 1777993165 | 16.11° C | 27% | 1005 hPa | - | - | - | - |
* Rain since midnight (hover to see other rain measurements)
** Current wind speed in m/s (hover to see current wind gust speed)